EW4331 Weather Reports


Display with metric or nautical units.
time (UTC)temp
F
wind
direction
speed
MPH
gust
MPH
rain 1hr
in
rain 24hr
in
rain mn
in
humidity
%
barometer
mb
20220926202005 74 158 2.0 8.0 0.00 0.07 0.07 60 1003.0
20220926201005 74 203 2.0 10.0 0.00 0.07 0.07 61 1003.0
20220926200005 74 180 1.0 7.0 0.00 0.07 0.07 59 1003.0
20220926195045 74 180 1.0 10.0 0.00 0.07 0.07 62 1003.1
20220926194025 73 135 1.0 8.0 0.00 0.07 0.07 61 1003.2
20220926193025 74 135 1.0 7.0 0.00 0.07 0.07 61 1003.2
20220926192005 74 180 1.0 9.0 0.00 0.07 0.07 64 1003.2
20220926191005 74 0.0 3.0 0.00 0.07 0.07 62 1003.3
20220926190005 74 135 2.0 7.0 0.00 0.07 0.07 62 1003.3
20220926185005 73 23 1.0 6.0 0.00 0.07 0.07 64 1003.2
20220926184011 73 180 1.0 7.0 0.00 0.07 0.07 64 1003.2
20220926183025 72 135 1.0 7.0 0.00 0.07 0.07 66 1003.2
20220926182007 72 180 2.0 8.0 0.00 0.07 0.07 66 1003.0
20220926181007 72 135 1.0 8.0 0.00 0.07 0.07 63 1002.9
20220926180007 72 135 1.0 8.0 0.00 0.07 0.07 66 1003.2
20220926175027 72 135 2.0 7.0 0.00 0.07 0.07 67 1003.2
20220926174007 71 158 1.0 8.0 0.00 0.07 0.07 68 1003.1
20220926173047 71 68 1.0 7.0 0.00 0.07 0.07 68 1003.2
20220926172027 71 68 1.0 4.0 0.00 0.07 0.07 71 1003.4
20220926171007 71 135 2.0 7.0 0.00 0.07 0.07 71 1003.6
20220926170007 71 180 1.0 7.0 0.00 0.07 0.07 72 1003.5
20220926165007 71 0.0 5.0 0.00 0.07 0.07 74 1003.5
20220926164027 70 45 1.0 8.0 0.00 0.07 0.07 77 1003.5
20220926163007 69 0.0 3.0 0.00 0.07 0.07 78 1003.7
20220926162027 68 0.0 5.0 0.01 0.07 0.07 79 1003.5
20220926161007 68 135 1.0 4.0 0.01 0.07 0.07 80 1003.6
20220926160027 68 158 1.0 5.0 0.01 0.07 0.07 81 1003.6
20220926155027 67 270 2.0 8.0 0.01 0.07 0.07 81 1003.5
20220926154007 67 0.0 4.0 0.01 0.07 0.07 82 1003.6
20220926153007 67 180 1.0 8.0 0.01 0.07 0.07 84 1003.6
20220926152007 67 180 1.0 7.0 0.00 0.06 0.06 82 1003.8
20220926151007 67 0.0 4.0 0.00 0.06 0.06 82 1003.8
20220926150027 67 0.0 3.0 0.00 0.06 0.06 84 1003.7
20220926145006 66 0.0 0.0 0.00 0.06 0.06 84 1003.6
20220926144026 67 225 1.0 7.0 0.00 0.06 0.06 84 1003.7
20220926143007 67 0.0 3.0 0.00 0.06 0.06 85 1003.6
20220926142027 66 0.0 1.0 0.00 0.06 0.06 87 1003.4
20220926141007 66 135 1.0 6.0 0.00 0.06 0.06 87 1003.4
20220926140026 66 0.0 6.0 0.00 0.06 0.06 88 1003.3
20220926135006 66 0.0 3.0 0.00 0.06 0.06 89 1003.2
20220926134006 65 0.0 2.0 0.00 0.06 0.06 90 1003.2
20220926133006 65 0.0 3.0 0.00 0.06 0.06 90 1003.3
20220926132026 65 0.0 1.0 0.00 0.06 0.06 91 1003.1
20220926131026 65 0.0 4.0 0.00 0.06 0.06 91 1003.0
20220926130007 65 0.0 1.0 0.00 0.06 0.06 91 1002.8
20220926125046 65 0.0 2.0 0.00 0.06 0.06 90 1002.7
20220926124006 65 0.0 3.0 0.00 0.06 0.06 90 1002.7
20220926123006 65 0.0 2.0 0.00 0.06 0.06 92 1002.7
20220926122126 64 0.0 0.0 0.00 0.06 0.06 94 1002.6
20220926121006 63 0.0 5.0 0.00 0.06 0.06 96 1002.5
20220926120006 62 0.0 3.0 0.00 0.06 0.06 98 1002.4
20220926115006 61 0.0 0.0 0.00 0.06 0.06 99 1002.2
20220926114006 60 0.0 2.0 0.00 0.06 0.06 99 1002.1
20220926113006 59 0.0 4.0 0.00 0.06 0.06 99 1001.9
20220926112006 59 0.0 0.0 0.00 0.06 0.06 99 1001.9
20220926111506 59 0.0 5.0 0.00 0.06 0.06 99 1001.9
20220926110506 58 0.0 3.0 0.00 0.06 0.06 99 1001.7
20220926105506 58 0.0 0.0 0.00 0.06 0.06 99 1001.5
20220926104506 58 0.0 4.0 0.00 0.06 0.06 99 1001.3
20220926103506 58 0.0 0.0 0.00 0.06 0.06 98 1001.0
20220926102506 59 0.0 0.0 0.00 0.06 0.06 98 1001.0
20220926101506 59 0.0 0.0 0.00 0.06 0.06 99 1000.8
20220926100506 59 0.0 3.0 0.00 0.06 0.06 99 1000.7
20220926095506 59 0.0 3.0 0.00 0.06 0.06 98 1000.7
20220926094526 59 0.0 1.0 0.00 0.06 0.06 98 1000.4
20220926093506 59 0.0 0.0 0.00 0.06 0.06 99 1000.2
20220926092506 59 0.0 0.0 0.00 0.06 0.06 99 1000.1
20220926091506 59 0.0 0.0 0.00 0.06 0.06 98 1000.0
20220926090506 58 0.0 1.0 0.00 0.06 0.06 98 1000.0
20220926085526 57 0.0 0.0 0.00 0.06 0.06 97 1000.0
20220926084506 58 0.0 0.0 0.00 0.06 0.06 96 1000.1
20220926083527 58 0.0 0.0 0.00 0.06 0.06 96 1000.1
20220926082526 58 0.0 0.0 0.00 0.06 0.06 96 999.7
20220926081505 58 0.0 0.0 0.00 0.06 0.06 96 999.7
20220926080525 59 0.0 0.0 0.00 0.06 0.06 96 999.9
20220926075526 59 0.0 0.0 0.00 0.06 0.06 96 999.8
20220926074545 59 0.0 0.0 0.00 0.06 0.06 96 999.7
20220926073545 60 0.0 0.0 0.00 0.06 0.06 96 999.7
20220926072525 60 0.0 0.0 0.00 0.06 0.06 96 999.8
20220926071545 60 0.0 0.0 0.00 0.06 0.06 96 1000.0
20220926070525 61 0.0 0.0 0.00 0.06 0.06 96 1000.0
20220926065545 61 0.0 0.0 0.03 0.06 0.06 96 999.8
20220926064505 61 0.0 0.0 0.04 0.06 0.06 95 1000.0
20220926063505 61 0.0 0.0 0.05 0.06 0.06 95 1000.2
20220926062505 61 0.0 0.0 0.05 0.06 0.06 94 1000.4
20220926061505 62 0.0 0.0 0.06 0.06 0.06 94 1000.7
20220926060525 62 0.0 5.0 0.06 0.06 0.06 94 1001.3
20220926055505 63 0.0 4.0 0.03 0.03 0.03 94 1001.7
20220926054505 63 0.0 3.0 0.02 0.02 0.02 93 1001.5
20220926053505 63 135 1.0 7.0 0.01 0.01 0.01 93 1001.4
20220926052505 63 135 1.0 9.0 0.01 0.01 0.01 93 1001.2
20220926051505 63 0.0 6.0 0.00 0.00 0.00 92 1001.3
20220926050507 63 0.0 3.0 0.00 0.00 0.00 92 1001.3
20220926045527 63 0.0 1.0 0.00 0.00 0.00 93 1001.2
20220926044525 63 0.0 0.0 0.00 0.00 0.00 93 1001.0
20220926043527 63 0.0 2.0 0.00 0.00 0.00 93 1001.1
20220926042527 63 0.0 4.0 0.00 0.00 0.00 93 1000.7
20220926041547 63 0.0 2.0 0.00 0.00 0.00 94 1000.7
20220926040527 63 0.0 6.0 0.00 0.00 0.00 94 1001.1
20220926035507 63 0.0 3.0 0.00 0.00 0.00 95 1001.0
20220926034527 63 0.0 7.0 0.00 0.00 0.00 95 1001.0
20220926033546 63 0.0 0.0 0.00 0.00 0.00 95 1001.0
20220926032507 63 0.0 2.0 0.00 0.00 0.00 95 1001.0
20220926031507 63 0.0 0.0 0.00 0.00 0.00 95 1001.0
20220926030506 64 0.0 0.0 0.00 0.00 0.00 95 1001.0
20220926025526 64 0.0 0.0 0.00 0.00 0.00 95 1001.2
20220926024546 64 0.0 0.0 0.00 0.00 0.00 95 1001.4
20220926023506 64 0.0 2.0 0.00 0.00 0.00 94 1001.5
20220926022506 65 0.0 3.0 0.00 0.00 0.00 94 1001.4
20220926021627 65 0.0 1.0 0.00 0.00 0.00 94 1001.5
20220926020506 65 0.0 0.0 0.00 0.00 0.00 94 1001.6
20220926015506 65 0.0 3.0 0.00 0.00 0.00 94 1001.5
20220926014546 65 0.0 4.0 0.00 0.00 0.00 94 1001.5
20220926013526 65 0.0 1.0 0.00 0.00 0.00 93 1001.6
20220926012546 65 0.0 4.0 0.00 0.00 0.00 93 1001.4
20220926011506 66 0.0 5.0 0.00 0.00 0.00 93 1001.5
20220926010506 65 135 1.0 7.0 0.00 0.00 0.00 93 1001.6
20220926005626 65 158 1.0 7.0 0.00 0.00 0.00 93 1001.6
20220926004506 65 0.0 2.0 0.00 0.00 0.00 93 1001.7
20220926003528 65 0.0 5.0 0.00 0.00 0.00 93 1001.8
20220926002506 65 0.0 2.0 0.00 0.00 0.00 94 1001.8
20220926001526 64 0.0 0.0 0.00 0.00 0.00 94 1001.9
20220926000526 64 0.0 5.0 0.00 0.00 0.00 94 1002.0
20220925235506 64 0.0 2.0 0.00 0.00 0.00 94 1002.0
20220925234506 64 0.0 0.0 0.00 0.00 0.00 94 1002.2
20220925233546 64 0.0 0.0 0.00 0.00 0.00 93 1002.2
20220925232526 64 0.0 0.0 0.00 0.00 0.00 93 1002.2
20220925231526 64 0.0 0.0 0.00 0.00 0.00 92 1002.3
20220925230506 64 0.0 2.0 0.00 0.00 0.00 92 1002.4
20220925225506 64 0.0 2.0 0.00 0.00 0.00 91 1002.4
20220925224506 65 0.0 1.0 0.00 0.00 0.00 91 1002.6
20220925223506 65 0.0 3.0 0.00 0.00 0.00 91 1002.8
20220925222506 65 0.0 3.0 0.00 0.00 0.00 91 1002.7
20220925221526 65 0.0 3.0 0.00 0.00 0.00 90 1002.9
20220925220506 65 0.0 1.0 0.00 0.00 0.00 89 1002.9
20220925215526 65 0.0 1.0 0.00 0.00 0.00 89 1003.0
20220925214506 65 0.0 2.0 0.00 0.00 0.00 89 1003.2
20220925213506 65 0.0 1.0 0.00 0.00 0.00 88 1003.2
20220925212546 65 0.0 1.0 0.00 0.00 0.00 87 1003.5
20220925211526 65 0.0 6.0 0.00 0.00 0.00 86 1003.5
20220925210526 65 0.0 2.0 0.00 0.00 0.00 85 1003.4
20220925205526 66 0.0 3.0 0.00 0.00 0.00 84 1003.6
20220925204525 66 0.0 0.0 0.00 0.00 0.00 82 1003.7
20220925203526 66 0.0 0.0 0.00 0.00 0.00 80 1003.8
20220925202506 66 0.0 0.0 0.00 0.00 0.00 78 1003.9